Regional Weather Roundup
Issued by NWS Charleston, SC

Current Version | Previous Version | Text Only | Print | Product List | Glossary Off
Versions: 1 2 3 4 5 6 7 8 9 10 11 12 13 14 15 16 17 18 19 20 21 22 23 24 25 26 27 28 29 30 31 32 33 34 35 36 37 38 39 40 41 42 43 44 45 46 47 48 49 50

000
ASUS42 KCHS 272325
RWRCHS

REGIONAL WEATHER ROUNDUP
NATIONAL WEATHER SERVICE CHARLESTON SC
600 PM EST THU NOV 27 2014

NOTE: "FAIR" INDICATES FEW OR NO CLOUDS BELOW 12,000 FEET WITH NO
SIGNIFICANT WEATHER AND/OR OBSTRUCTIONS TO VISIBILITY.

NOT ALL STATIONS ARE QUALITY CONTROLLED BY THE NATIONAL
WEATHER SERVICE. USE DATA WITH CAUTION...ESPECIALLY
DEWPOINT OBSERVATIONS.

SCZ027-030-031-034>040-042>050-280000-
...SOUTHEAST SOUTH CAROLINA...

CITY           SKY/WX    TMP DP  RH WIND       PRES   REMARKS
N CHARLESTON   PTCLDY    49  31  49 NW6       30.20R
WATERFRONT PRK   N/A     52 N/A N/A W3          N/A
MOUNT PLEASANT FAIR      45  37  76 CALM      30.20R
JOHNS ISLAND   CLEAR     48  37  66 CALM      30.22R
PINOPOLIS        N/A     54  36  50 W8G15     30.09R
MONCKS CORNER  FAIR      46  39  76 CALM      30.20R
SUMMERVILLE    FAIR      45  36  70 W3        30.22R
BEAUFORT MCAS  CLEAR     49  31  49 W6        30.23R
BEAUFORT ARPT  FAIR      50  36  57 NW7       30.23R
HILTON HEAD IS CLEAR     52  32  46 NW6       30.23R
WALTERBORO     CLEAR     46  32  57 W5        30.23R
ALLENDALE      FAIR      48  32  53 CALM      30.23R

...SOUTHERN MIDLANDS AND PEE DEE...

CITY           SKY/WX    TMP DP  RH WIND       PRES   REMARKS
GEORGETOWN     NOT AVBL
KINGSTREE      NOT AVBL
ORANGEBURG     CLEAR     49  29  46 W7        30.20R
BARNWELL       FAIR      46  32  57 W5        30.23R
AIKEN          FAIR      45  32  61 W7        30.26R
MANNING        NOT AVBL
COLUMBIA       PTCLDY    49  30  48 W6        30.20R
SUMTER         CLEAR     48  28  46 NW5       30.18R
FLORENCE       PTCLDY    45  36  70 CALM      30.18R
MYRTLE BEACH   CLEAR     50  34  53 N12       30.16R
N MYRTLE BEACH CLEAR     47  36  65 N5        30.16R

$$

GAZ063-065-086>088-099>101-113>116-118-119-134>141-150-280000-
...SOUTHEAST GEORGIA...

CITY           SKY/WX    TMP DP  RH WIND       PRES   REMARKS
SAVANNAH ARPT  CLEAR     50  31  48 NW6       30.24R
HUNTER AAF     CLEAR     50  31  48 NW9       30.22R
FORT STEWART   CLEAR     48  31  51 NW3       30.24R
STATESBORO     NOT AVBL
SYLVANIA       CLEAR     48  36  62 NW6       30.25R
CLAXTON        FAIR      48  12  23 W7        30.26R

...CSRA...CENTRAL AND FAR SOUTHEAST GEORGIA...

CITY           SKY/WX    TMP DP  RH WIND       PRES   REMARKS
THOMSON        CLEAR     46  34  63 W9        30.32R
AUGUSTA-BUSH   CLEAR     48  27  44 NW14      30.25R
AUGUSTA-DANIEL CLEAR     49  27  42 NW10      30.24R
SWAINSBORO     FAIR      48  34  57 NW10G16   30.28R
VIDALIA        CLEAR     48  32  53 NW7       30.27R
HAZLEHURST     FAIR      50  32  51 NW3       30.28R
ALMA           CLEAR     50  30  46 NW7       30.26R
WAYCROSS       CLEAR     51  35  56 NW6       30.27R
JESUP          FAIR      52  36  54 NW8       30.26R
BAXLEY         FAIR      50  32  50 N7        30.27R
BRUNSWICK      CLEAR     50  32  50 CALM      30.26R
SAINT SIMONS   CLEAR     51  32  48 NW7       30.24R

$$

SCZ027-028-034-036>038-045-046-048>050-GAZ119-141-280000-
...LAKE AND SUPPLEMENTAL COASTAL OBSERVATIONS...

STATION/POSITION TIME  TEMP    WIND        PRES    WAVE   SWELL
                       AIR SEA DIR/SP/G            HT/PER HT/PER/DIR
                 (UTC) (F)     (DEG/KT/KT) (MB)    (FT/S) (FT/S/D)
UPR LAKE MARION  NOT AVBL
WINYAH BAY       2300   47     300/  2     1021.0S
LAKE MURRAY      2200   51     300/  4/  7 1021.3R
ACE BASIN NERRS  2300   49     290/  3     1023.0R
FORT PULASKI     2300   51     310/  9/ 11 1024.0R
SAPELO ISLAND    2300   51     310/  6     1024.0R

$$

ANZ835-935-AMZ111-154-330-350-352-354-370-450-454-472-280000-
...C-MAN AND BUOY OBSERVATIONS...

STATION/POSITION TIME  TEMP    WIND        PRES    WAVE   SWELL
                       AIR SEA DIR/SP/G            HT/PER HT/PER/DIR
                 (UTC) (F)     (DEG/KT/KT) (MB)    (FT/S) (FT/S/D)
FOLLY BEACH CMAN 2300   48     290/  3/  4 1023.1R
BUOY 41004       2300   56 72  320/ 19/ 25 1020.9R   6/ 5   2/ 9
BUOY 41008       2300   55 63  320/ 19/ 23 1023.3R   4/ 4
CAPERS NEARSHORE 2200   54     330/ 14/ 16   N/A
FRIPP NEARSHORE  NOT AVBL


STATION/POSITION TIME  TEMP    WIND        PRES    WAVE   SWELL
                       AIR SEA DIR/SP/G            HT/PER HT/PER/DIR
                 (UTC) (F)     (DEG/KT/KT) (MB)    (FT/S) (FT/S/D)
5E ST. MARYS GA  2300      62                N/A     3/ 3
FRYING PAN BUOY  2300   55 70  320/ 23/ 29 1019.8R   7/ 6   2/320/14
BUOY 41025       2300   53     320/ 21/ 27 1016.2R   6/ 9   3/100/ 9
CAPE LOOKOUT NC  2300   48     320/ 22/ 26 1018.9R
BUOY 41002       2151   65 73  280/ 25/ 35 1016.6R  11/ 8
BUOY 41010       2300   66 78  310/ 21/ 25 1020.8R   9/ 7   2/ 80/14
ST AUGUSTINE FL  2300   54     320/  9/ 12 1024.3R


$$


USA.gov is the U.S. government's official web portal to all federal, state and local government web resources and services.